| time (UTC) | temp F | wind direction | speed knots | gust knots | rain 1hr in | rain 24hr in | rain mn in | humidity % | barometer mb |
| 20260504050010 | 43 | 186 | 0.0 | 1.7 | 0.00 | 0.09 | 0.00 | 96 | 1009.3 |
| 20260504044515 | 43 | 64 | 0.9 | 1.7 | 0.00 | 0.09 | 0.00 | 96 | 1009.5 |
| 20260504043018 | 43 | 65 | 0.0 | 0.9 | 0.00 | 0.09 | 0.00 | 95 | 1009.7 |
| 20260504041522 | 43 | 65 | 0.0 | 4.3 | 0.00 | 0.09 | 0.00 | 95 | 1009.7 |
| 20260504040028 | 43 | 178 | 1.7 | 2.6 | 0.00 | 0.09 | 0.00 | 95 | 1009.8 |
| 20260504034508 | 43 | 178 | 0.0 | 2.6 | 0.00 | 0.09 | 0.09 | 95 | 1009.9 |
| 20260504033016 | 43 | 178 | 0.9 | 2.6 | 0.01 | 0.09 | 0.09 | 95 | 1009.6 |
| 20260504031520 | 43 | 178 | 0.0 | 0.9 | 0.02 | 0.09 | 0.09 | 94 | 1009.8 |
| 20260504030024 | 43 | 178 | 0.0 | 0.9 | 0.03 | 0.09 | 0.09 | 94 | 1009.9 |
| 20260504024533 | 43 | 178 | 0.0 | 0.9 | 0.04 | 0.09 | 0.09 | 93 | 1010.0 |
| 20260504023012 | 43 | 178 | 0.0 | 3.5 | 0.04 | 0.08 | 0.08 | 92 | 1010.0 |
| 20260504021519 | 43 | 216 | 0.9 | 3.5 | 0.04 | 0.07 | 0.07 | 91 | 1011.0 |
| 20260504020021 | 44 | 308 | 0.0 | 1.7 | 0.05 | 0.06 | 0.06 | 89 | 1010.7 |
| 20260504014526 | 44 | 311 | 0.9 | 6.1 | 0.05 | 0.05 | 0.05 | 86 | 1011.0 |
| 20260504013010 | 45 | 304 | 0.9 | 7.0 | 0.04 | 0.04 | 0.04 | 84 | 1011.0 |
| 20260504011514 | 45 | 303 | 1.7 | 8.7 | 0.03 | 0.03 | 0.03 | 79 | 1010.7 |
| 20260504010003 | 46 | 288 | 1.7 | 5.2 | 0.01 | 0.01 | 0.01 | 75 | 1010.5 |
| 20260504004506 | 48 | 320 | 1.7 | 8.7 | 0.00 | 0.00 | 0.00 | 66 | 1010.3 |
| 20260504003004 | 49 | 242 | 3.5 | 13.0 | 0.00 | 0.00 | 0.00 | 62 | 1010.1 |
| 20260504001510 | 48 | 237 | 3.5 | 7.8 | 0.00 | 0.00 | 0.00 | 61 | 1010.0 |
| 20260504000015 | 47 | 199 | 0.0 | 2.6 | 0.00 | 0.00 | 0.00 | 68 | 1009.7 |
| 20260503234504 | 47 | 199 | 0.0 | 0.0 | 0.00 | 0.00 | 0.00 | 65 | 1009.7 |
| 20260503233006 | 48 | 199 | 0.0 | 3.5 | 0.00 | 0.00 | 0.00 | 61 | 1009.7 |
| 20260503231509 | 48 | 291 | 3.5 | 20.9 | 0.00 | 0.00 | 0.00 | 60 | 1010.3 |
| 20260503230013 | 50 | 268 | 2.6 | 19.1 | 0.00 | 0.00 | 0.00 | 51 | 1010.5 |
| 20260503224527 | 51 | 299 | 7.0 | 18.2 | 0.00 | 0.00 | 0.00 | 49 | 1010.2 |
| 20260503223004 | 51 | 311 | 1.7 | 8.7 | 0.00 | 0.00 | 0.00 | 49 | 1010.0 |
| 20260503221508 | 51 | 330 | 3.5 | 7.8 | 0.00 | 0.00 | 0.00 | 48 | 1010.0 |
| 20260503220018 | 51 | 241 | 1.7 | 7.8 | 0.00 | 0.00 | 0.00 | 48 | 1009.9 |
| 20260503214515 | 51 | 298 | 1.7 | 8.7 | 0.00 | 0.00 | 0.00 | 48 | 1009.9 |
| 20260503213023 | 51 | 284 | 3.5 | 10.4 | 0.00 | 0.00 | 0.00 | 47 | 1009.9 |
| 20260503211504 | 51 | 290 | 4.3 | 12.2 | 0.00 | 0.00 | 0.00 | 46 | 1009.9 |
| 20260503210007 | 52 | 23 | 2.6 | 10.4 | 0.00 | 0.00 | 0.00 | 46 | 1010.0 |
| 20260503204514 | 51 | 305 | 7.8 | 13.9 | 0.00 | 0.00 | 0.00 | 44 | 1010.1 |
| 20260503203024 | 52 | 315 | 7.0 | 14.8 | 0.00 | 0.00 | 0.00 | 41 | 1010.4 |
| 20260503201523 | 51 | 339 | 4.3 | 12.2 | 0.00 | 0.00 | 0.00 | 42 | 1010.5 |
| 20260503200009 | 51 | 344 | 8.7 | 13.9 | 0.00 | 0.00 | 0.00 | 40 | 1010.8 |
| 20260503194512 | 50 | 335 | 6.1 | 17.4 | 0.00 | 0.00 | 0.00 | 44 | 1010.9 |
| 20260503193016 | 50 | 310 | 5.2 | 14.8 | 0.00 | 0.00 | 0.00 | 43 | 1011.0 |
| 20260503191523 | 52 | 321 | 6.1 | 14.8 | 0.00 | 0.00 | 0.00 | 41 | 1010.9 |
| 20260503190026 | 52 | 297 | 6.1 | 19.1 | 0.00 | 0.00 | 0.00 | 37 | 1010.9 |
| 20260503184516 | 51 | 334 | 8.7 | 17.4 | 0.00 | 0.00 | 0.00 | 34 | 1011.0 |
| 20260503183014 | 51 | 319 | 7.8 | 13.0 | 0.00 | 0.00 | 0.00 | 34 | 1011.3 |
| 20260503181519 | 51 | 133 | 3.5 | 16.5 | 0.00 | 0.00 | 0.00 | 35 | 1011.4 |
| 20260503180024 | 50 | 5 | 7.8 | 15.6 | 0.00 | 0.00 | 0.00 | 39 | 1011.8 |
| 20260503174531 | 49 | 24 | 5.2 | 18.2 | 0.00 | 0.00 | 0.00 | 37 | 1011.9 |
| 20260503173010 | 49 | 277 | 7.8 | 13.9 | 0.00 | 0.00 | 0.00 | 35 | 1012.0 |
| 20260503171517 | 49 | 314 | 5.2 | 17.4 | 0.00 | 0.00 | 0.00 | 35 | 1012.1 |
| 20260503081516 | 34 | 285 | 0.0 | 0.0 | 0.00 | 0.00 | 0.00 | 85 | 1013.7 |
| 20260503071514 | 35 | 285 | 0.0 | 0.0 | 0.00 | 0.01 | 0.00 | 82 | 1013.5 |
| 20260503054526 | 36 | 290 | 0.0 | 1.7 | 0.00 | 0.01 | 0.00 | 78 | 1013.6 |